Time,TemperatureF,DewpointF,PressureIn,WindDirection,WindDirectionDegrees,WindSpeedMPH,WindSpeedGustMPH,Humidity,HourlyPrecipIn,Conditions,Clouds,dailyrainin,SoftwareType,DateUTC
2013-06-15 00:03:00,80.9,74.9,29.89,ESE,104,0.0,0.0,82,0.00,,---,0.00,VWS V14.01,2013-06-15 05:03:00,
2013-06-15 00:08:00,80.5,75.2,29.89,ESE,104,0.0,0.0,84,0.00,,---,0.00,VWS V14.01,2013-06-15 05:08:00,
2013-06-15 00:13:00,80.1,75.2,29.89,ESE,104,0.0,0.0,85,0.00,,---,0.00,VWS V14.01,2013-06-15 05:13:00,
2013-06-15 00:18:00,79.8,75.2,29.89,ESE,104,0.0,0.0,86,0.00,,---,0.00,VWS V14.01,2013-06-15 05:18:00,
2013-06-15 00:23:00,79.6,75.4,29.89,ESE,104,0.0,0.0,87,0.00,,---,0.00,VWS V14.01,2013-06-15 05:23:00,
2013-06-15 00:28:00,79.3,75.1,29.89,ESE,104,0.0,0.0,87,0.00,,---,0.00,VWS V14.01,2013-06-15 05:28:00,
2013-06-15 00:33:00,79.0,75.2,29.89,ESE,104,0.0,0.0,88,0.00,,---,0.00,VWS V14.01,2013-06-15 05:33:00,
2013-06-15 00:38:00,78.8,74.9,29.89,ESE,104,0.0,0.0,88,0.00,,---,0.00,VWS V14.01,2013-06-15 05:38:00,
2013-06-15 00:43:00,78.9,75.1,29.89,ESE,104,0.0,0.0,88,0.00,,---,0.00,VWS V14.01,2013-06-15 05:43:00,
2013-06-15 00:48:00,79.0,75.2,29.89,ESE,104,0.0,0.0,88,0.00,,---,0.00,VWS V14.01,2013-06-15 05:48:00,
2013-06-15 00:54:00,78.9,75.1,29.89,ESE,104,0.0,0.0,88,0.00,,---,0.00,VWS V14.01,2013-06-15 05:54:00,
2013-06-15 00:59:00,78.7,75.2,29.90,ESE,104,0.0,0.0,89,0.00,,---,0.00,VWS V14.01,2013-06-15 05:59:00,
2013-06-15 01:04:00,78.4,75.2,29.90,ESE,104,0.0,0.0,90,0.00,,---,0.00,VWS V14.01,2013-06-15 06:04:00,
2013-06-15 01:09:00,78.4,74.6,29.90,ESE,104,0.0,1.0,88,0.00,,---,0.00,VWS V14.01,2013-06-15 06:09:00,
2013-06-15 01:14:00,79.3,74.8,29.90,ESE,104,0.0,0.0,86,0.00,,---,0.00,VWS V14.01,2013-06-15 06:14:00,
2013-06-15 01:19:00,80.0,74.7,29.90,ESE,104,0.0,2.0,84,0.00,,---,0.00,VWS V14.01,2013-06-15 06:19:00,
2013-06-15 01:24:00,80.6,74.6,29.90,ESE,104,1.0,1.0,82,0.00,,---,0.00,VWS V14.01,2013-06-15 06:24:00,
2013-06-15 01:29:00,81.2,74.8,29.90,ESE,104,3.0,3.0,81,0.00,,---,0.00,VWS V14.01,2013-06-15 06:29:00,
2013-06-15 01:34:00,81.6,75.2,29.90,ESE,104,1.0,4.0,81,0.00,,---,0.00,VWS V14.01,2013-06-15 06:34:00,
2013-06-15 01:39:00,81.9,75.5,29.90,ESE,104,3.0,3.0,81,0.00,,---,0.00,VWS V14.01,2013-06-15 06:39:00,
2013-06-15 01:44:00,82.2,75.4,29.90,ESE,104,1.0,2.0,80,0.00,,---,0.00,VWS V14.01,2013-06-15 06:44:00,
2013-06-15 01:49:00,82.5,75.3,29.90,ESE,104,0.0,2.0,79,0.00,,---,0.00,VWS V14.01,2013-06-15 06:49:00,
2013-06-15 01:54:00,82.7,75.5,29.90,ESE,104,1.0,2.0,79,0.00,,---,0.00,VWS V14.01,2013-06-15 06:54:00,
2013-06-15 02:00:00,82.8,75.6,29.89,ESE,104,0.0,1.0,79,0.00,,---,0.00,VWS V14.01,2013-06-15 07:00:00,
2013-06-15 02:05:00,82.8,75.6,29.89,ESE,104,0.0,1.0,79,0.00,,---,0.00,VWS V14.01,2013-06-15 07:05:00,
2013-06-15 02:10:00,82.6,75.4,29.89,ESE,104,0.0,0.0,79,0.00,,---,0.00,VWS V14.01,2013-06-15 07:10:00,
2013-06-15 02:15:00,82.7,75.2,29.89,ESE,104,2.0,3.0,78,0.00,,---,0.00,VWS V14.01,2013-06-15 07:15:00,
2013-06-15 02:20:00,82.7,75.5,29.89,ESE,104,1.0,3.0,79,0.00,,---,0.00,VWS V14.01,2013-06-15 07:20:00,
2013-06-15 02:25:00,82.5,75.3,29.89,ESE,104,0.0,1.0,79,0.00,,---,0.00,VWS V14.01,2013-06-15 07:25:00,
2013-06-15 02:30:00,82.3,75.5,29.89,ESE,104,0.0,1.0,80,0.00,,---,0.00,VWS V14.01,2013-06-15 07:30:00,
2013-06-15 02:35:00,81.9,75.5,29.89,ESE,104,3.0,3.0,81,0.00,,---,0.00,VWS V14.01,2013-06-15 07:35:00,
2013-06-15 02:40:00,81.5,75.5,29.89,ESE,104,2.0,3.0,82,0.00,,---,0.00,VWS V14.01,2013-06-15 07:40:00,
2013-06-15 02:45:00,81.4,75.7,29.89,ESE,104,0.0,3.0,83,0.00,,---,0.00,VWS V14.01,2013-06-15 07:45:00,
2013-06-15 02:50:00,81.3,75.7,29.89,ESE,104,0.0,0.0,83,0.00,,---,0.00,VWS V14.01,2013-06-15 07:50:00,
2013-06-15 02:55:00,81.1,75.8,29.88,ESE,104,1.0,2.0,84,0.00,,---,0.00,VWS V14.01,2013-06-15 07:55:00,
2013-06-15 03:00:00,81.1,75.8,29.88,ESE,104,0.0,2.0,84,0.00,,---,0.00,VWS V14.01,2013-06-15 08:00:00,
2013-06-15 03:05:00,81.1,75.8,29.88,ESE,104,0.0,1.0,84,0.00,,---,0.00,VWS V14.01,2013-06-15 08:05:00,
2013-06-15 03:10:00,81.1,75.8,29.88,ESE,104,0.0,0.0,84,0.00,,---,0.00,VWS V14.01,2013-06-15 08:10:00,
2013-06-15 03:30:00,80.8,75.9,29.88,ESE,112,0.0,2.0,85,0.00,,---,0.00,VWS V14.01,2013-06-15 08:30:00,
2013-06-15 04:18:00,73.8,68.7,29.89,SW,217,17.0,17.0,84,0.00,,---,0.06,VWS V14.01,2013-06-15 09:18:00,
2013-06-15 04:23:00,72.2,68.4,29.90,SSW,211,10.0,19.0,88,0.10,,---,0.10,VWS V14.01,2013-06-15 09:23:00,
2013-06-15 04:28:00,72.0,68.9,29.88,SW,226,3.0,8.0,90,0.10,,---,0.10,VWS V14.01,2013-06-15 09:28:00,
2013-06-15 04:33:00,72.1,68.7,29.89,SSW,213,8.0,10.0,89,0.10,,---,0.10,VWS V14.01,2013-06-15 09:33:00,
2013-06-15 04:38:00,72.0,68.6,29.88,South,191,3.0,5.0,89,0.10,,---,0.10,VWS V14.01,2013-06-15 09:38:00,
2013-06-15 04:43:00,71.9,68.5,29.88,SSW,213,2.0,2.0,89,0.10,,---,0.10,VWS V14.01,2013-06-15 09:43:00,
2013-06-15 04:48:00,71.7,68.3,29.87,SW,233,0.0,4.0,89,0.10,,---,0.10,VWS V14.01,2013-06-15 09:48:00,
2013-06-15 04:53:00,71.8,68.4,29.86,WSW,258,0.0,4.0,89,0.10,,---,0.10,VWS V14.01,2013-06-15 09:53:00,
2013-06-15 04:58:00,71.6,68.2,29.85,NNW,329,0.0,4.0,89,0.10,,---,0.10,VWS V14.01,2013-06-15 09:58:00,
2013-06-15 05:03:00,71.4,68.0,29.85,North,360,3.0,3.0,89,0.00,,---,0.10,VWS V14.01,2013-06-15 10:03:00,
2013-06-15 05:08:00,71.2,67.8,29.85,NE,54,4.0,5.0,89,0.00,,---,0.10,VWS V14.01,2013-06-15 10:08:00,
2013-06-15 05:14:00,71.2,68.1,29.86,NE,55,0.0,0.0,90,0.00,,---,0.10,VWS V14.01,2013-06-15 10:14:00,
2013-06-15 05:19:00,71.1,68.3,29.86,ENE,71,0.0,2.0,91,0.00,,---,0.10,VWS V14.01,2013-06-15 10:19:00,
2013-06-15 05:24:00,71.1,68.7,29.86,ENE,71,4.0,4.0,92,0.00,,---,0.10,VWS V14.01,2013-06-15 10:24:00,
2013-06-15 05:29:00,71.1,68.7,29.86,ENE,70,0.0,0.0,92,0.00,,---,0.10,VWS V14.01,2013-06-15 10:29:00,
2013-06-15 05:34:00,71.0,68.6,29.86,ENE,70,0.0,0.0,92,0.00,,---,0.10,VWS V14.01,2013-06-15 10:34:00,
2013-06-15 05:39:00,70.9,68.5,29.86,ENE,70,0.0,0.0,92,0.00,,---,0.10,VWS V14.01,2013-06-15 10:39:00,
2013-06-15 05:44:00,71.1,69.0,29.86,ENE,70,0.0,0.0,93,0.00,,---,0.10,VWS V14.01,2013-06-15 10:44:00,
2013-06-15 05:49:00,71.0,68.6,29.87,ENE,70,1.0,2.0,92,0.00,,---,0.10,VWS V14.01,2013-06-15 10:49:00,
2013-06-15 05:54:00,70.7,68.6,29.87,ENE,70,0.0,0.0,93,0.00,,---,0.10,VWS V14.01,2013-06-15 10:54:00,
2013-06-15 05:59:00,70.6,68.5,29.87,ENE,70,0.0,0.0,93,0.00,,---,0.10,VWS V14.01,2013-06-15 10:59:00,
2013-06-15 06:04:00,70.8,69.0,29.88,ENE,70,0.0,0.0,94,0.00,,---,0.10,VWS V14.01,2013-06-15 11:04:00,
2013-06-15 06:09:00,70.8,69.0,29.88,ENE,70,0.0,2.0,94,0.00,,---,0.10,VWS V14.01,2013-06-15 11:09:00,
2013-06-15 06:14:00,70.8,69.0,29.89,ENE,70,0.0,0.0,94,0.00,,---,0.10,VWS V14.01,2013-06-15 11:14:00,
2013-06-15 06:20:00,71.1,69.3,29.88,ENE,70,0.0,0.0,94,0.00,,---,0.10,VWS V14.01,2013-06-15 11:20:00,
2013-06-15 06:25:00,71.3,69.5,29.89,ENE,70,0.0,1.0,94,0.00,,---,0.10,VWS V14.01,2013-06-15 11:25:00,
2013-06-15 06:30:00,71.2,69.4,29.90,East,94,5.0,5.0,94,0.00,,---,0.10,VWS V14.01,2013-06-15 11:30:00,
2013-06-15 06:35:00,71.5,70.0,29.90,SSE,150,0.0,3.0,95,0.00,,---,0.10,VWS V14.01,2013-06-15 11:35:00,
2013-06-15 06:40:00,71.7,69.9,29.90,SSE,150,0.0,0.0,94,0.00,,---,0.10,VWS V14.01,2013-06-15 11:40:00,
2013-06-15 06:45:00,71.8,70.0,29.91,SSE,150,1.0,1.0,94,0.00,,---,0.10,VWS V14.01,2013-06-15 11:45:00,
2013-06-15 06:50:00,72.0,70.2,29.92,ESE,119,7.0,7.0,94,0.00,,---,0.10,VWS V14.01,2013-06-15 11:50:00,
2013-06-15 06:55:00,72.4,69.3,29.92,ESE,119,7.0,11.0,90,0.00,,---,0.10,VWS V14.01,2013-06-15 11:55:00,
2013-06-15 07:00:00,73.2,69.1,29.93,East,101,6.0,9.0,87,0.00,,---,0.10,VWS V14.01,2013-06-15 12:00:00,
2013-06-15 07:05:00,73.4,69.0,29.93,ESE,117,5.0,9.0,86,0.00,,---,0.10,VWS V14.01,2013-06-15 12:05:00,
2013-06-15 07:10:00,73.6,68.8,29.93,SE,132,7.0,9.0,85,0.00,,---,0.10,VWS V14.01,2013-06-15 12:10:00,
2013-06-15 07:15:00,73.8,69.0,29.93,SE,126,2.0,7.0,85,0.00,,---,0.10,VWS V14.01,2013-06-15 12:15:00,
2013-06-15 07:20:00,73.8,69.3,29.93,ESE,113,2.0,4.0,86,0.00,,---,0.10,VWS V14.01,2013-06-15 12:20:00,
2013-06-15 07:26:00,73.8,69.3,29.93,ESE,105,1.0,5.0,86,0.00,,---,0.10,VWS V14.01,2013-06-15 12:26:00,
2013-06-15 07:31:00,73.9,69.4,29.93,ESE,107,1.0,4.0,86,0.00,,---,0.10,VWS V14.01,2013-06-15 12:31:00,
2013-06-15 07:36:00,73.9,69.8,29.94,ESE,107,2.0,2.0,87,0.00,,---,0.10,VWS V14.01,2013-06-15 12:36:00,
2013-06-15 07:41:00,74.1,70.0,29.94,ESE,107,0.0,2.0,87,0.00,,---,0.10,VWS V14.01,2013-06-15 12:41:00,
2013-06-15 07:46:00,74.2,70.4,29.94,ESE,106,0.0,0.0,88,0.00,,---,0.10,VWS V14.01,2013-06-15 12:46:00,
2013-06-15 07:51:00,74.3,70.5,29.94,ESE,106,0.0,1.0,88,0.00,,---,0.10,VWS V14.01,2013-06-15 12:51:00,
2013-06-15 07:56:00,74.4,70.3,29.94,ESE,107,0.0,0.0,87,0.00,,---,0.10,VWS V14.01,2013-06-15 12:56:00,
2013-06-15 08:01:00,74.6,70.5,29.94,ESE,107,0.0,0.0,87,0.00,,---,0.10,VWS V14.01,2013-06-15 13:01:00,
2013-06-15 08:06:00,74.8,71.0,29.94,ESE,107,0.0,0.0,88,0.00,,---,0.10,VWS V14.01,2013-06-15 13:06:00,
2013-06-15 08:11:00,74.9,70.8,29.94,ESE,107,0.0,0.0,87,0.00,,---,0.10,VWS V14.01,2013-06-15 13:11:00,
2013-06-15 08:16:00,75.1,71.0,29.94,ESE,107,2.0,2.0,87,0.00,,---,0.10,VWS V14.01,2013-06-15 13:16:00,
2013-06-15 08:21:00,75.4,70.9,29.94,SE,134,0.0,4.0,86,0.00,,---,0.10,VWS V14.01,2013-06-15 13:21:00,
2013-06-15 08:26:00,75.7,71.2,29.94,SE,139,2.0,2.0,86,0.00,,---,0.10,VWS V14.01,2013-06-15 13:26:00,
2013-06-15 08:31:00,75.9,71.1,29.95,SSE,151,3.0,4.0,85,0.00,,---,0.10,VWS V14.01,2013-06-15 13:31:00,
2013-06-15 08:37:00,76.1,70.9,29.95,SSE,165,1.0,5.0,84,0.00,,---,0.10,VWS V14.01,2013-06-15 13:37:00,
2013-06-15 08:42:00,76.3,71.1,29.95,SSE,150,3.0,5.0,84,0.00,,---,0.10,VWS V14.01,2013-06-15 13:42:00,
2013-06-15 08:47:00,76.5,71.7,29.95,SE,140,6.0,6.0,85,0.00,,---,0.10,VWS V14.01,2013-06-15 13:47:00,
2013-06-15 08:52:00,76.6,71.4,29.95,SE,140,6.0,9.0,84,0.00,,---,0.10,VWS V14.01,2013-06-15 13:52:00,
2013-06-15 08:57:00,76.8,71.6,29.96,South,180,4.0,6.0,84,0.00,,---,0.10,VWS V14.01,2013-06-15 13:57:00,
2013-06-15 09:02:00,77.0,71.8,29.95,SE,138,3.0,4.0,84,0.00,,---,0.10,VWS V14.01,2013-06-15 14:02:00,
2013-06-15 09:07:00,77.3,72.1,29.96,SE,132,5.0,7.0,84,0.00,,---,0.10,VWS V14.01,2013-06-15 14:07:00,
2013-06-15 09:12:00,77.5,71.9,29.96,East,95,5.0,7.0,83,0.00,,---,0.10,VWS V14.01,2013-06-15 14:12:00,
2013-06-15 09:17:00,77.6,71.7,29.96,SE,130,5.0,5.0,82,0.00,,---,0.10,VWS V14.01,2013-06-15 14:17:00,
2013-06-15 09:22:00,77.8,71.9,29.96,SSE,167,1.0,4.0,82,0.00,,---,0.10,VWS V14.01,2013-06-15 14:22:00,
2013-06-15 09:27:00,78.2,71.5,29.96,SSE,165,4.0,7.0,80,0.00,,---,0.10,VWS V14.01,2013-06-15 14:27:00,
2013-06-15 09:32:00,78.8,72.1,29.96,South,186,2.0,9.0,80,0.00,,---,0.10,VWS V14.01,2013-06-15 14:32:00,
2013-06-15 09:37:00,79.2,71.4,29.96,SE,132,9.0,11.0,77,0.00,,---,0.10,VWS V14.01,2013-06-15 14:37:00,
2013-06-15 09:42:00,79.3,71.5,29.96,South,169,2.0,7.0,77,0.00,,---,0.10,VWS V14.01,2013-06-15 14:42:00,
2013-06-15 09:48:00,79.6,72.1,29.96,SSW,192,5.0,7.0,78,0.00,,---,0.10,VWS V14.01,2013-06-15 14:48:00,
2013-06-15 09:53:00,79.9,72.4,29.96,ESE,121,5.0,7.0,78,0.02,,---,0.12,VWS V14.01,2013-06-15 14:53:00,
2013-06-15 09:58:00,80.0,72.5,29.96,SE,128,4.0,6.0,78,0.02,,---,0.12,VWS V14.01,2013-06-15 14:58:00,
2013-06-15 10:03:00,80.1,73.0,29.95,SE,142,4.0,5.0,79,0.02,,---,0.12,VWS V14.01,2013-06-15 15:03:00,
2013-06-15 10:08:00,80.4,72.5,29.96,SE,126,8.0,9.0,77,0.02,,---,0.12,VWS V14.01,2013-06-15 15:08:00,
2013-06-15 10:13:00,80.5,73.0,29.96,SSE,151,5.0,7.0,78,0.02,,---,0.12,VWS V14.01,2013-06-15 15:13:00,
2013-06-15 10:18:00,80.6,73.5,29.95,SE,140,3.0,5.0,79,0.02,,---,0.12,VWS V14.01,2013-06-15 15:18:00,
2013-06-15 10:23:00,80.8,73.7,29.95,ESE,119,7.0,9.0,79,0.02,,---,0.12,VWS V14.01,2013-06-15 15:23:00,
2013-06-15 10:28:00,80.7,73.2,29.95,SE,127,5.0,7.0,78,0.02,,---,0.12,VWS V14.01,2013-06-15 15:28:00,
2013-06-15 10:33:00,80.6,73.5,29.94,SE,134,4.0,8.0,79,0.02,,---,0.12,VWS V14.01,2013-06-15 15:33:00,
2013-06-15 10:38:00,80.6,73.5,29.95,SE,140,4.0,10.0,79,0.02,,---,0.12,VWS V14.01,2013-06-15 15:38:00,
2013-06-15 10:43:00,80.7,73.2,29.94,SE,146,8.0,8.0,78,0.02,,---,0.12,VWS V14.01,2013-06-15 15:43:00,
2013-06-15 10:48:00,81.0,73.9,29.94,SE,135,8.0,9.0,79,0.02,,---,0.12,VWS V14.01,2013-06-15 15:48:00,
2013-06-15 10:53:00,81.2,74.1,29.94,SE,137,6.0,8.0,79,0.02,,---,0.12,VWS V14.01,2013-06-15 15:53:00,
2013-06-15 10:58:00,81.3,73.8,29.94,SE,125,4.0,5.0,78,0.02,,---,0.12,VWS V14.01,2013-06-15 15:58:00,
2013-06-15 11:04:00,81.4,74.3,29.94,SSE,150,2.0,3.0,79,0.00,,---,0.12,VWS V14.01,2013-06-15 16:04:00,
2013-06-15 11:09:00,81.7,73.8,29.94,SE,146,4.0,5.0,77,0.00,,---,0.12,VWS V14.01,2013-06-15 16:09:00,
2013-06-15 11:14:00,81.9,74.0,29.94,SE,138,2.0,4.0,77,0.00,,---,0.12,VWS V14.01,2013-06-15 16:14:00,
2013-06-15 11:19:00,82.2,74.3,29.94,ESE,107,4.0,5.0,77,0.00,,---,0.12,VWS V14.01,2013-06-15 16:19:00,
2013-06-15 11:24:00,82.4,74.9,29.94,SE,128,6.0,6.0,78,0.00,,---,0.12,VWS V14.01,2013-06-15 16:24:00,
2013-06-15 11:29:00,82.7,74.4,29.94,SE,130,6.0,6.0,76,0.00,,---,0.12,VWS V14.01,2013-06-15 16:29:00,
2013-06-15 11:34:00,82.7,74.4,29.94,SSE,168,3.0,6.0,76,0.00,,---,0.12,VWS V14.01,2013-06-15 16:34:00,
2013-06-15 11:39:00,82.8,74.1,29.94,SSE,149,4.0,6.0,75,0.00,,---,0.12,VWS V14.01,2013-06-15 16:39:00,
2013-06-15 11:44:00,83.1,74.8,29.94,South,180,2.0,4.0,76,0.00,,---,0.12,VWS V14.01,2013-06-15 16:44:00,
2013-06-15 11:49:00,83.2,74.5,29.94,ESE,123,2.0,5.0,75,0.00,,---,0.12,VWS V14.01,2013-06-15 16:49:00,
2013-06-15 11:54:00,83.3,74.2,29.94,South,175,7.0,7.0,74,0.00,,---,0.12,VWS V14.01,2013-06-15 16:54:00,
2013-06-15 11:59:00,83.7,74.1,29.94,SSW,199,4.0,4.0,73,0.00,,---,0.12,VWS V14.01,2013-06-15 16:59:00,
2013-06-15 12:05:00,84.0,74.4,29.94,South,190,2.0,5.0,73,0.00,,---,0.12,VWS V14.01,2013-06-15 17:05:00,
2013-06-15 12:10:00,84.2,74.2,29.93,South,182,1.0,4.0,72,0.00,,---,0.12,VWS V14.01,2013-06-15 17:10:00,
2013-06-15 12:15:00,84.4,74.8,29.93,South,178,0.0,3.0,73,0.00,,---,0.12,VWS V14.01,2013-06-15 17:15:00,
2013-06-15 12:20:00,84.8,75.6,29.93,South,189,3.0,4.0,74,0.00,,---,0.12,VWS V14.01,2013-06-15 17:20:00,
2013-06-15 12:25:00,85.0,75.0,29.93,South,169,0.0,2.0,72,0.00,,---,0.12,VWS V14.01,2013-06-15 17:25:00,
2013-06-15 12:30:00,85.1,74.6,29.93,South,186,0.0,5.0,71,0.00,,---,0.12,VWS V14.01,2013-06-15 17:30:00,
2013-06-15 12:35:00,85.2,74.7,29.93,SW,224,2.0,6.0,71,0.00,,---,0.12,VWS V14.01,2013-06-15 17:35:00,
2013-06-15 12:40:00,86.2,74.8,29.92,SW,225,1.0,6.0,69,0.00,,---,0.12,VWS V14.01,2013-06-15 17:40:00,
2013-06-15 12:45:00,86.8,75.0,29.92,SW,216,3.0,7.0,68,0.00,,---,0.12,VWS V14.01,2013-06-15 17:45:00,
2013-06-15 12:50:00,86.6,74.8,29.92,SSW,198,3.0,4.0,68,0.00,,---,0.12,VWS V14.01,2013-06-15 17:50:00,
2013-06-15 12:55:00,86.7,74.4,29.92,South,190,7.0,7.0,67,0.00,,---,0.12,VWS V14.01,2013-06-15 17:55:00,
2013-06-15 13:00:00,86.8,74.5,29.92,SSW,211,2.0,4.0,67,0.00,,---,0.12,VWS V14.01,2013-06-15 18:00:00,
2013-06-15 13:05:00,87.4,74.7,29.92,SSW,197,5.0,6.0,66,0.00,,---,0.12,VWS V14.01,2013-06-15 18:05:00,
2013-06-15 13:10:00,87.6,74.8,29.91,SSW,207,5.0,6.0,66,0.00,,---,0.12,VWS V14.01,2013-06-15 18:10:00,
2013-06-15 13:16:00,88.0,75.7,29.91,SW,228,3.0,3.0,67,0.00,,---,0.12,VWS V14.01,2013-06-15 18:16:00,
2013-06-15 13:21:00,89.0,75.2,29.91,West,259,1.0,4.0,64,0.00,,---,0.12,VWS V14.01,2013-06-15 18:21:00,
2013-06-15 13:26:00,89.1,75.3,29.91,West,260,2.0,7.0,64,0.00,,---,0.12,VWS V14.01,2013-06-15 18:26:00,
2013-06-15 13:31:00,89.0,76.6,29.91,SSW,207,0.0,3.0,67,0.00,,---,0.12,VWS V14.01,2013-06-15 18:31:00,
2013-06-15 13:36:00,88.8,76.0,29.91,South,178,3.0,3.0,66,0.00,,---,0.12,VWS V14.01,2013-06-15 18:36:00,
2013-06-15 13:41:00,88.9,77.0,29.91,South,177,4.0,4.0,68,0.00,,---,0.12,VWS V14.01,2013-06-15 18:41:00,
2013-06-15 13:46:00,88.4,75.6,29.91,SSW,193,2.0,3.0,66,0.00,,---,0.12,VWS V14.01,2013-06-15 18:46:00,
2013-06-15 13:51:00,88.2,75.9,29.91,South,188,1.0,3.0,67,0.00,,---,0.12,VWS V14.01,2013-06-15 18:51:00,
2013-06-15 13:56:00,88.2,75.9,29.91,SSW,211,2.0,5.0,67,0.00,,---,0.12,VWS V14.01,2013-06-15 18:56:00,
2013-06-15 14:01:00,88.8,76.0,29.91,South,186,2.0,6.0,66,0.00,,---,0.12,VWS V14.01,2013-06-15 19:01:00,
2013-06-15 14:06:00,88.4,76.9,29.91,South,175,1.0,3.0,69,0.00,,---,0.12,VWS V14.01,2013-06-15 19:06:00,
2013-06-15 14:11:00,88.0,77.4,29.91,SSE,159,2.0,3.0,71,0.00,,---,0.12,VWS V14.01,2013-06-15 19:11:00,
2013-06-15 14:16:00,87.8,76.8,29.91,ESE,123,3.0,4.0,70,0.00,,---,0.12,VWS V14.01,2013-06-15 19:16:00,
2013-06-15 14:21:00,87.6,75.7,29.90,ESE,119,3.0,4.0,68,0.00,,---,0.12,VWS V14.01,2013-06-15 19:21:00,
2013-06-15 14:27:00,87.5,77.4,29.90,ESE,111,3.0,3.0,72,0.00,,---,0.12,VWS V14.01,2013-06-15 19:27:00,
2013-06-15 14:32:00,87.4,76.4,29.90,East,96,2.0,3.0,70,0.00,,---,0.12,VWS V14.01,2013-06-15 19:32:00,
2013-06-15 14:37:00,87.6,77.0,29.90,East,96,1.0,2.0,71,0.00,,---,0.12,VWS V14.01,2013-06-15 19:37:00,
2013-06-15 14:42:00,87.6,77.0,29.90,East,86,3.0,7.0,71,0.00,,---,0.12,VWS V14.01,2013-06-15 19:42:00,
2013-06-15 14:47:00,87.6,76.2,29.90,ESE,103,0.0,3.0,69,0.00,,---,0.12,VWS V14.01,2013-06-15 19:47:00,
2013-06-15 14:52:00,87.9,76.9,29.90,ESE,103,0.0,3.0,70,0.00,,---,0.12,VWS V14.01,2013-06-15 19:52:00,
2013-06-15 14:57:00,88.0,76.6,29.90,South,177,3.0,6.0,69,0.00,,---,0.12,VWS V14.01,2013-06-15 19:57:00,
2013-06-15 15:02:00,88.6,75.3,29.90,South,184,1.0,4.0,65,0.00,,---,0.12,VWS V14.01,2013-06-15 20:02:00,
2013-06-15 15:07:00,89.2,75.4,29.90,South,181,0.0,2.0,64,0.00,,---,0.12,VWS V14.01,2013-06-15 20:07:00,
2013-06-15 15:12:00,89.8,75.5,29.89,South,181,0.0,2.0,63,0.00,,---,0.12,VWS V14.01,2013-06-15 20:12:00,
2013-06-15 15:17:00,90.9,75.1,29.89,SSW,198,1.0,7.0,60,0.00,,---,0.12,VWS V14.01,2013-06-15 20:17:00,
2013-06-15 15:22:00,90.9,75.6,29.89,South,169,4.0,4.0,61,0.00,,---,0.12,VWS V14.01,2013-06-15 20:22:00,
2013-06-15 15:27:00,89.9,77.0,29.89,SE,139,3.0,4.0,66,0.00,,---,0.12,VWS V14.01,2013-06-15 20:27:00,
2013-06-15 15:33:00,88.8,76.0,29.89,ESE,113,2.0,5.0,66,0.00,,---,0.12,VWS V14.01,2013-06-15 20:33:00,
2013-06-15 15:38:00,88.3,76.8,29.89,SE,126,3.0,6.0,69,0.00,,---,0.12,VWS V14.01,2013-06-15 20:38:00,
2013-06-15 15:43:00,88.3,78.1,29.88,SE,126,3.0,4.0,72,0.00,,---,0.12,VWS V14.01,2013-06-15 20:43:00,
2013-06-15 15:48:00,88.2,77.2,29.88,SE,126,4.0,5.0,70,0.00,,---,0.12,VWS V14.01,2013-06-15 20:48:00,
2013-06-15 15:53:00,88.1,77.1,29.88,SE,127,2.0,4.0,70,0.00,,---,0.12,VWS V14.01,2013-06-15 20:53:00,
2013-06-15 15:58:00,88.0,76.6,29.88,SE,133,3.0,5.0,69,0.00,,---,0.12,VWS V14.01,2013-06-15 20:58:00,
2013-06-15 16:03:00,88.1,76.7,29.88,SE,134,1.0,4.0,69,0.00,,---,0.12,VWS V14.01,2013-06-15 21:03:00,
2013-06-15 16:08:00,88.3,76.8,29.87,SE,143,2.0,3.0,69,0.00,,---,0.12,VWS V14.01,2013-06-15 21:08:00,
2013-06-15 16:13:00,88.7,75.4,29.87,SSW,207,4.0,4.0,65,0.00,,---,0.12,VWS V14.01,2013-06-15 21:13:00,
2013-06-15 16:18:00,89.9,75.6,29.87,SW,224,1.0,5.0,63,0.00,,---,0.12,VWS V14.01,2013-06-15 21:18:00,
2013-06-15 16:23:00,90.5,75.2,29.87,SSW,196,3.0,7.0,61,0.00,,---,0.12,VWS V14.01,2013-06-15 21:23:00,
2013-06-15 16:28:00,90.5,76.2,29.87,SSW,192,2.0,4.0,63,0.00,,---,0.12,VWS V14.01,2013-06-15 21:28:00,
2013-06-15 16:33:00,90.7,75.9,29.87,South,169,3.0,6.0,62,0.00,,---,0.12,VWS V14.01,2013-06-15 21:33:00,
2013-06-15 16:39:00,90.8,76.0,29.87,South,178,3.0,5.0,62,0.00,,---,0.12,VWS V14.01,2013-06-15 21:39:00,
2013-06-15 16:44:00,90.8,75.5,29.87,SSW,194,3.0,5.0,61,0.00,,---,0.12,VWS V14.01,2013-06-15 21:44:00,
2013-06-15 16:49:00,90.6,75.3,29.86,SSW,194,5.0,5.0,61,0.00,,---,0.12,VWS V14.01,2013-06-15 21:49:00,
2013-06-15 16:54:00,90.7,75.4,29.86,SSW,211,6.0,7.0,61,0.00,,---,0.12,VWS V14.01,2013-06-15 21:54:00,
2013-06-15 16:59:00,90.7,75.4,29.86,SSW,196,5.0,7.0,61,0.00,,---,0.12,VWS V14.01,2013-06-15 21:59:00,
2013-06-15 17:04:00,90.5,75.7,29.86,South,180,1.0,6.0,62,0.00,,---,0.12,VWS V14.01,2013-06-15 22:04:00,
2013-06-15 17:09:00,90.8,75.5,29.86,South,188,5.0,8.0,61,0.00,,---,0.12,VWS V14.01,2013-06-15 22:09:00,
2013-06-15 17:14:00,90.8,76.0,29.86,SW,219,3.0,4.0,62,0.00,,---,0.12,VWS V14.01,2013-06-15 22:14:00,
2013-06-15 17:19:00,90.7,74.9,29.86,SW,218,4.0,6.0,60,0.00,,---,0.12,VWS V14.01,2013-06-15 22:19:00,
2013-06-15 17:24:00,90.6,75.3,29.86,SSW,200,1.0,8.0,61,0.00,,---,0.12,VWS V14.01,2013-06-15 22:24:00,
2013-06-15 17:29:00,90.4,75.1,29.86,SW,214,1.0,6.0,61,0.00,,---,0.12,VWS V14.01,2013-06-15 22:29:00,
2013-06-15 17:34:00,90.6,76.3,29.86,SW,216,2.0,2.0,63,0.00,,---,0.12,VWS V14.01,2013-06-15 22:34:00,
2013-06-15 17:39:00,90.4,76.1,29.85,SSW,211,4.0,4.0,63,0.00,,---,0.12,VWS V14.01,2013-06-15 22:39:00,
2013-06-15 17:44:00,90.1,75.3,29.85,SSW,209,3.0,4.0,62,0.00,,---,0.12,VWS V14.01,2013-06-15 22:44:00,
2013-06-15 17:50:00,89.9,75.1,29.85,SW,230,1.0,7.0,62,0.00,,---,0.12,VWS V14.01,2013-06-15 22:50:00,
2013-06-15 17:55:00,89.9,75.1,29.85,SSW,212,1.0,5.0,62,0.00,,---,0.12,VWS V14.01,2013-06-15 22:55:00,
2013-06-15 18:00:00,89.9,75.6,29.85,SSW,207,4.0,5.0,63,0.00,,---,0.12,VWS V14.01,2013-06-15 23:00:00,
2013-06-15 18:05:00,89.6,75.3,29.84,WSW,241,2.0,3.0,63,0.00,,---,0.12,VWS V14.01,2013-06-15 23:05:00,
2013-06-15 18:10:00,90.0,75.7,29.84,WSW,256,6.0,7.0,63,0.00,,---,0.12,VWS V14.01,2013-06-15 23:10:00,
2013-06-15 18:15:00,90.2,75.4,29.84,WSW,239,2.0,5.0,62,0.00,,---,0.12,VWS V14.01,2013-06-15 23:15:00,
2013-06-15 18:20:00,89.9,75.1,29.84,SW,228,0.0,2.0,62,0.00,,---,0.12,VWS V14.01,2013-06-15 23:20:00,
2013-06-15 18:25:00,89.6,74.4,29.84,SW,216,3.0,4.0,61,0.00,,---,0.12,VWS V14.01,2013-06-15 23:25:00,
2013-06-15 18:30:00,89.9,75.6,29.84,SW,219,3.0,3.0,63,0.00,,---,0.12,VWS V14.01,2013-06-15 23:30:00,
2013-06-15 18:35:00,90.6,75.3,29.83,WSW,248,1.0,4.0,61,0.00,,---,0.12,VWS V14.01,2013-06-15 23:35:00,
2013-06-15 18:40:00,90.7,74.9,29.83,WSW,248,0.0,3.0,60,0.00,,---,0.12,VWS V14.01,2013-06-15 23:40:00,
2013-06-15 18:45:00,90.5,75.2,29.83,WSW,249,0.0,1.0,61,0.00,,---,0.12,VWS V14.01,2013-06-15 23:45:00,
2013-06-15 18:50:00,90.0,77.1,29.84,WSW,249,1.0,1.0,66,0.00,,---,0.12,VWS V14.01,2013-06-15 23:50:00,
2013-06-15 18:56:00,89.3,77.8,29.85,WSW,248,0.0,1.0,69,0.00,,---,0.12,VWS V14.01,2013-06-15 23:56:00,
2013-06-15 19:01:00,88.3,77.3,29.85,WSW,248,2.0,2.0,70,0.00,,---,0.12,VWS V14.01,2013-06-16 00:01:00,
2013-06-15 19:06:00,87.7,77.6,29.85,WSW,248,0.0,2.0,72,0.00,,---,0.12,VWS V14.01,2013-06-16 00:06:00,
2013-06-15 19:11:00,87.3,76.8,29.85,WSW,248,0.0,2.0,71,0.00,,---,0.12,VWS V14.01,2013-06-16 00:11:00,
2013-06-15 19:16:00,86.9,76.8,29.86,WSW,248,1.0,2.0,72,0.00,,---,0.12,VWS V14.01,2013-06-16 00:16:00,
2013-06-15 19:21:00,86.5,77.2,29.85,WSW,248,2.0,2.0,74,0.00,,---,0.12,VWS V14.01,2013-06-16 00:21:00,
2013-06-15 19:26:00,86.1,76.4,29.86,WSW,248,0.0,1.0,73,0.00,,---,0.12,VWS V14.01,2013-06-16 00:26:00,
2013-06-15 19:31:00,84.7,73.8,29.86,ESE,103,5.0,13.0,70,0.00,,---,0.12,VWS V14.01,2013-06-16 00:31:00,
2013-06-15 19:36:00,83.0,73.5,29.86,East,95,9.0,11.0,73,0.00,,---,0.12,VWS V14.01,2013-06-16 00:36:00,
2013-06-15 19:41:00,82.0,73.3,29.86,East,100,2.0,9.0,75,0.00,,---,0.12,VWS V14.01,2013-06-16 00:41:00,
2013-06-15 19:46:00,81.5,72.4,29.86,ESE,103,8.0,10.0,74,0.00,,---,0.12,VWS V14.01,2013-06-16 00:46:00,
2013-06-15 19:51:00,81.3,72.6,29.86,ESE,118,7.0,8.0,75,0.00,,---,0.12,VWS V14.01,2013-06-16 00:51:00,
2013-06-15 19:56:00,81.2,71.7,29.87,ESE,119,10.0,13.0,73,0.00,,---,0.12,VWS V14.01,2013-06-16 00:56:00,
2013-06-15 20:02:00,81.1,71.2,29.86,ESE,117,4.0,8.0,72,0.00,,---,0.12,VWS V14.01,2013-06-16 01:02:00,
2013-06-15 20:07:00,81.0,71.5,29.86,ESE,118,3.0,5.0,73,0.00,,---,0.12,VWS V14.01,2013-06-16 01:07:00,
2013-06-15 20:12:00,80.8,70.9,29.86,SE,126,6.0,7.0,72,0.00,,---,0.12,VWS V14.01,2013-06-16 01:12:00,
2013-06-15 20:17:00,80.6,69.9,29.86,ESE,115,4.0,8.0,70,0.00,,---,0.12,VWS V14.01,2013-06-16 01:17:00,
2013-06-15 20:22:00,80.7,70.4,29.86,ESE,111,5.0,7.0,71,0.00,,---,0.12,VWS V14.01,2013-06-16 01:22:00,
2013-06-15 20:27:00,80.7,70.8,29.87,ESE,119,2.0,6.0,72,0.00,,---,0.12,VWS V14.01,2013-06-16 01:27:00,
2013-06-15 20:32:00,80.6,70.8,29.87,ESE,119,5.0,9.0,72,0.00,,---,0.12,VWS V14.01,2013-06-16 01:32:00,
2013-06-15 20:37:00,80.6,70.8,29.87,ESE,109,4.0,7.0,72,0.00,,---,0.12,VWS V14.01,2013-06-16 01:37:00,
2013-06-15 20:42:00,80.5,70.7,29.87,ESE,109,7.0,7.0,72,0.00,,---,0.12,VWS V14.01,2013-06-16 01:42:00,
2013-06-15 20:47:00,80.3,70.9,29.87,East,93,7.0,11.0,73,0.00,,---,0.12,VWS V14.01,2013-06-16 01:47:00,
2013-06-15 20:52:00,80.1,71.5,29.87,ESE,102,3.0,5.0,75,0.00,,---,0.12,VWS V14.01,2013-06-16 01:52:00,
2013-06-15 20:57:00,79.8,71.6,29.88,ESE,106,3.0,6.0,76,0.00,,---,0.12,VWS V14.01,2013-06-16 01:57:00,
2013-06-15 21:02:00,79.4,71.6,29.88,East,95,5.0,6.0,77,0.00,,---,0.12,VWS V14.01,2013-06-16 02:02:00,
2013-06-15 21:08:00,79.2,71.4,29.88,ESE,117,3.0,8.0,77,0.00,,---,0.12,VWS V14.01,2013-06-16 02:08:00,
2013-06-15 21:13:00,79.2,71.4,29.89,ESE,108,2.0,4.0,77,0.00,,---,0.12,VWS V14.01,2013-06-16 02:13:00,
2013-06-15 21:18:00,79.0,71.2,29.89,NE,56,2.0,6.0,77,0.00,,---,0.12,VWS V14.01,2013-06-16 02:18:00,
2013-06-15 21:23:00,78.9,70.7,29.89,ESE,109,3.0,8.0,76,0.00,,---,0.12,VWS V14.01,2013-06-16 02:23:00,
2013-06-15 21:28:00,78.9,70.3,29.89,East,87,2.0,7.0,75,0.00,,---,0.12,VWS V14.01,2013-06-16 02:28:00,
2013-06-15 21:33:00,78.7,70.5,29.89,East,82,3.0,3.0,76,0.00,,---,0.12,VWS V14.01,2013-06-16 02:33:00,
2013-06-15 21:38:00,78.6,70.4,29.89,ESE,109,2.0,7.0,76,0.00,,---,0.12,VWS V14.01,2013-06-16 02:38:00,
2013-06-15 21:43:00,78.5,70.7,29.89,ESE,108,4.0,8.0,77,0.00,,---,0.12,VWS V14.01,2013-06-16 02:43:00,
2013-06-15 21:48:00,78.5,71.1,29.89,East,96,2.0,8.0,78,0.00,,---,0.12,VWS V14.01,2013-06-16 02:48:00,
2013-06-15 21:53:00,78.4,71.0,29.89,SE,144,4.0,8.0,78,0.00,,---,0.12,VWS V14.01,2013-06-16 02:53:00,
2013-06-15 21:58:00,78.3,71.3,29.89,ESE,117,2.0,3.0,79,0.00,,---,0.12,VWS V14.01,2013-06-16 02:58:00,
2013-06-15 22:03:00,78.2,71.5,29.90,ENE,78,3.0,5.0,80,0.00,,---,0.12,VWS V14.01,2013-06-16 03:03:00,
2013-06-15 22:08:00,78.1,71.4,29.90,ESE,111,0.0,3.0,80,0.00,,---,0.12,VWS V14.01,2013-06-16 03:08:00,
2013-06-15 22:14:00,78.0,71.7,29.90,ENE,74,3.0,8.0,81,0.00,,---,0.12,VWS V14.01,2013-06-16 03:14:00,
2013-06-15 22:19:00,77.9,71.6,29.90,ESE,103,4.0,5.0,81,0.00,,---,0.12,VWS V14.01,2013-06-16 03:19:00,
2013-06-15 22:24:00,77.9,71.6,29.90,ESE,111,4.0,5.0,81,0.00,,---,0.12,VWS V14.01,2013-06-16 03:24:00,
2013-06-15 22:29:00,77.9,72.0,29.90,ESE,111,3.0,7.0,82,0.00,,---,0.12,VWS V14.01,2013-06-16 03:29:00,
2013-06-15 22:34:00,78.0,71.7,29.90,East,95,3.0,7.0,81,0.00,,---,0.12,VWS V14.01,2013-06-16 03:34:00,
2013-06-15 22:39:00,78.1,71.8,29.91,ESE,102,2.0,4.0,81,0.00,,---,0.12,VWS V14.01,2013-06-16 03:39:00,
2013-06-15 22:44:00,78.1,71.8,29.91,East,94,3.0,6.0,81,0.00,,---,0.12,VWS V14.01,2013-06-16 03:44:00,
2013-06-15 22:49:00,78.1,71.8,29.91,ESE,106,4.0,4.0,81,0.00,,---,0.12,VWS V14.01,2013-06-16 03:49:00,
2013-06-15 22:54:00,78.1,71.8,29.91,ESE,107,4.0,4.0,81,0.00,,---,0.12,VWS V14.01,2013-06-16 03:54:00,
2013-06-15 22:59:00,78.1,71.8,29.91,ESE,108,1.0,4.0,81,0.00,,---,0.12,VWS V14.01,2013-06-16 03:59:00,
2013-06-15 23:01:00,78.1,71.8,29.91,ESE,109,1.0,4.0,81,0.00,,---,0.12,VWS V14.01,2013-06-16 04:01:00,
2013-06-15 23:02:00,78.1,71.8,29.91,ESE,108,1.0,2.0,81,0.00,,---,0.12,VWS V14.01,2013-06-16 04:02:00,
2013-06-15 23:07:00,78.0,71.7,29.91,ESE,105,3.0,4.0,81,0.00,,---,0.12,VWS V14.01,2013-06-16 04:07:00,
2013-06-15 23:12:00,78.0,71.7,29.91,East,98,1.0,3.0,81,0.00,,---,0.12,VWS V14.01,2013-06-16 04:12:00,
2013-06-15 23:17:00,77.9,71.6,29.91,East,97,1.0,3.0,81,0.00,,---,0.12,VWS V14.01,2013-06-16 04:17:00,
2013-06-15 23:22:00,77.8,71.5,29.91,East,96,3.0,3.0,81,0.00,,---,0.12,VWS V14.01,2013-06-16 04:22:00,
2013-06-15 23:27:00,77.8,71.5,29.91,East,92,2.0,6.0,81,0.00,,---,0.12,VWS V14.01,2013-06-16 04:27:00,
2013-06-15 23:32:00,77.7,71.4,29.91,East,101,5.0,6.0,81,0.00,,---,0.12,VWS V14.01,2013-06-16 04:32:00,
2013-06-15 23:37:00,77.7,71.4,29.91,East,88,1.0,5.0,81,0.00,,---,0.12,VWS V14.01,2013-06-16 04:37:00,
2013-06-15 23:43:00,77.6,71.3,29.91,East,92,2.0,3.0,81,0.00,,---,0.12,VWS V14.01,2013-06-16 04:43:00,
2013-06-15 23:48:00,77.6,71.7,29.91,ESE,117,3.0,4.0,82,0.00,,---,0.12,VWS V14.01,2013-06-16 04:48:00,
2013-06-15 23:53:00,77.6,72.0,29.90,ESE,115,1.0,3.0,83,0.00,,---,0.12,VWS V14.01,2013-06-16 04:53:00,
2013-06-15 23:58:00,77.5,72.3,29.91,ESE,115,1.0,3.0,84,0.00,,---,0.12,VWS V14.01,2013-06-16 04:58:00,